Regional Weather Roundup
Issued by NWS Boston, MA

Home | Current Version | Previous Version | Text Only | Print | Product List | Glossary On
Versions: 1 2 3 4 5 6 7 8 9 10 11 12 13 14 15 16 17 18 19 20 21 22 23 24 25 26 27 28 29 30 31 32 33 34 35 36 37 38 39 40 41 42 43 44 45 46 47 48 49 50
000
ASUS41 KBOX 041710
RWRBOX

REGIONAL WEATHER ROUNDUP
NATIONAL WEATHER SERVICE TAUNTON MA
1200 PM EST WED MAR 04 2015

NOTE:  "FAIR" INDICATES FEW OR NO CLOUDS BELOW 12,000 FEET WITH NO
SIGNIFICANT WEATHER AND/OR OBSTRUCTIONS TO VISIBILITY.  THE FOLLOWING
OBSERVATION LOCATIONS DO NOT REPORT PRESENT WEATHER...PROVINCETOWN...
SMITHFIELD...BLOCK ISLAND...KEENE...AND OXFORD.

MAZALL-041800-
EASTERN MASSACHUSETTS

CITY           SKY/WX    TMP DP  RH WIND       PRES   REMARKS
BOSTON         CLOUDY    41  31  67 W14       29.78R
BEVERLY        CLOUDY    42  29  59 W14G21    29.74S
LAWRENCE       CLOUDY    41  30  65 SW15      29.76R
BEDFORD        CLOUDY    41  30  65 W10G18    29.76R
BLUE HILL        N/A     40  31  70 W14G25    29.76R
NORWOOD        CLOUDY    42  31  64 W10       29.79R
MARSHFIELD     CLOUDY    43  36  75 SW5       29.80F
PLYMOUTH       CLOUDY    39  35  86 SW12      29.79S WCI  32
TAUNTON        CLOUDY    42  35  76 SW9       29.80R
NEW BEDFORD    CLOUDY    41  36  82 SW8       29.81R
$$

MAZALL-041800-
CAPE COD AND THE ISLANDS

CITY           SKY/WX    TMP DP  RH WIND       PRES   REMARKS
FALMOUTH       CLOUDY    36  34  93 SW9G16    29.81R FOG     WCI  29
HYANNIS        CLOUDY    34  33  96 SW12      29.80F FOG     WCI  25
CHATHAM        CLOUDY    34  33  96 SW7       29.82S FOG     WCI  28
PROVINCETOWN   CLOUDY    37  34  87 SW12      29.80S WCI  30
NANTUCKET      CLOUDY    37  34  89 SW13      29.83F FOG     WCI  29
MARTHAS VNYRD  CLOUDY    36  32  85 SW9       29.83S FOG     WCI  29
$$

MAZALL-041800-
CENTRAL AND WESTERN MASSACHUSETTS

CITY           SKY/WX    TMP DP  RH WIND       PRES   REMARKS
WORCESTER      CLOUDY    38  29  70 W20G28    29.75R WCI  28
FITCHBURG      CLOUDY    42  28  57 W16G28    29.78R
ORANGE         CLOUDY    39  28  64 NW9       29.80R
SPRINGFIELD    CLOUDY    39  31  72 NW6       29.81R
WESTFIELD      CLOUDY    41  30  65 VRB6      29.81R
NORTH ADAMS    CLOUDY    35  27  72 MISG      29.83R
PITTSFIELD     CLOUDY    33  28  81 NW8G18    29.78R WCI  26
$$

RIZALL-041800-
RHODE ISLAND

CITY           SKY/WX    TMP DP  RH WIND       PRES   REMARKS
PROVIDENCE     CLOUDY    41  34  76 W6        29.82R
NEWPORT        CLOUDY    38  35  89 S5        29.82R
BLOCK ISLAND   PTSUNNY   37  34  87 SW14      29.83S WCI  29
SMITHFIELD     CLOUDY    41  30  65 W9        29.80R
WESTERLY       CLOUDY    36  34  92 SW5       29.85R FOG
$$

CTZALL-041800-
CONNECTICUT

CITY           SKY/WX    TMP DP  RH WIND       PRES   REMARKS
BRADLEY INTL   CLOUDY    43  32  65 W7        29.81R
HARTFORD       CLOUDY    41  34  76 SW8       29.84R
BRIDGEPORT     CLOUDY    37  35  92 SW10      29.85S FOG     WCI  30
DANBURY        CLOUDY    40  33  76 W8        29.86S
GROTON         CLOUDY    37  35  92 SW3       29.84S FOG
NEW HAVEN      CLOUDY    38  35  89 SW8       29.84S FOG
CHESTER        FAIR      39  36  87 W3        29.83F
MERIDEN        CLOUDY    42  35  76 VRB5      29.83S
WILLIMANTIC    CLOUDY    42  33  70 W6        29.82R
$$

MEZ002-015-021-024-NHZ003-005-008-011-012-014-VTZ005-008-041800-
NORTHERN NEW ENGLAND

CITY           SKY/WX    TMP DP  RH WIND       PRES   REMARKS
PORTLAND ME    CLOUDY    42  30  62 W12G20    29.70R
BANGOR ME      PTSUNNY   38  25  59 W13G20    29.63R WCI  30
CONCORD NH     CLOUDY    42  26  53 W12       29.73R
MANCHESTER NH  CLOUDY    43  29  57 SW9G22    29.74R
NASHUA NH      CLOUDY    44  28  53 W9G18     29.77R
PORTSMOUTH NH  CLOUDY    43  30  61 W8        29.71R
JAFFREY NH     CLOUDY    39  26  59 W14G25    29.75R WCI  31
KEENE NH       CLOUDY    41  27  56 W10G21    29.78R
BURLINGTON VT  PTSUNNY   38  21  50 W12       29.75R WCI  30
MT. WASHINGTON FOG       12  12 100 NW59G64     N/A  VSB 0   WCI -15
$$

NYZ052-076-041800-
EASTERN NEW YORK

CITY           SKY/WX    TMP DP  RH WIND       PRES   REMARKS
ALBANY         CLOUDY    37  27  67 NW12G21   29.85S WCI  29
NEW YORK CITY  CLOUDY    45  36  70 SW9       29.86F
$$

ANZALL-041800-
MARINE OBSERVATIONS

STATION/POSITION TIME  TEMP    WIND        PRES    VSBY  WAVE
                       AIR SEA DIR/SP/G                  HT/PER
                 (UTC) (F)     (DEG/KT/KT) (MB)    (MI)  (FT/S)
BOSTON BUOY      1650   39 36  230/ 12/ 14 1008.1          1/ 7
BUZZARDS BAY     NOT AVBL
NANTUCKET SOUND  1650   34 31  230/ 14/ 16 1010.0F         1/ 3
MASS BAY-STELLWA 1604   37 36  210/ 12/ 14   N/A    1 7/8  3/ 6
ISLE OF SHOALS   1700   40     220/ 16/ 17 1006.0R
S OF BLOCK IS    1608      36                N/A           9/ 9
$$

......................KEY.........................
  SKY/WX - SKY CONDITION/PRESENT WEATHER
  TMP    - TEMPERATURE IN FAHRENHEIT
  DWPT   - DEWPOINT IN FAHRENHEIT
  RH     - RELATIVE HUMIDITY IN PERCENT
  WIND   - DIRECTION AND SPEED IN MPH
  PRES   - MEAN SEA LEVEL PRESSURE IN INCHES OF HG
  WCI    - WIND CHILL INDEX
  VSB    - VISIBILITY IN MILES
  HX     - HEAT INDEX
  TC     - TEMPERATURE IN CELSIUS
  VRB    - VARIABLE WIND DIRECTION
  N/A    - NOT AVAILABLE



USA.gov is the U.S. government's official web portal to all federal, state and local government web resources and services.